Location: Boullarre
(49.1305°N, 3.0047°E)
Time: 21:58:09
(UTC+00:00)

ISS - Pass Details

Date: 28 September 2024
Orbit: 411 x 423 km, 51.6° (Epoch: 14 October)

Event Time Altitude Azimuth Distance (km) Brightness Sun altitude
Rises 18:41:52 0° 289° (WNW) 2,366 2.0 -12.2°
Reaches altitude 10° 18:44:03 10° 281° (W) 1,502 0.6 -12.5°
Maximum altitude 18:47:12 38° 212° (SSW) 663 -2.6 -13.0°
Enters shadow 18:49:36 15° 149° (SSE) 1,219 -1.8 -13.4°
